map of BJL home
Great Circle Mapper logo
BJL - Airport
Location
City:  Banjul, Gambia
Name:Banjul International Airport
Old (Alt.):Yundum International Airport
ICAO / IATA:GBYD / BJL

Details
Type:Airport (Aerodrome, Airfield)
Use:Public/Civil, International (customs port of entry)
Latitude:1320'17"N (13.337961)
Longitude:1639'08"W (-16.652205)
Datum:WGS 1984
Elevation:95 ft (29 m)
Runways:1
Longest:11811 × 148 ft (3600 × 45 m), paved

Time
Time Zone:UTC+0
Local Time:

Weather
METAR:GBYD 231800Z 30014KT 9999 FEW012 SCT220 30/24 Q1010
TAF:GBYD 231730Z 2318/2424 27008KT 9999 SCT013

Related Locations
Nearby:
Farthest:TOH: 12228 mi / 19679 km
Loh/Linua [Torres Airstrip], Linua Island, TOB, VU

Find:

   beyond  
but within

Other Information
Maps:
NOTAMs:
Links:
Sources:

  
flag of Gambia   

Sectional Chart

Flight Planning
at skyvector.com

Satellite Image

Google Maps Satellite View

 

Copyright © 2004-2014 Karl L. Swartz. All rights reserved.
The Great Circle Mapper name and logo are trademarks of the Great Circle Mapper.
All other trademarks mentioned herein belong to their respective owners.
Please see credits for attibutions and further copyright information.

  Follow gcmap on Facebook Follow gcmap on Twitter

hCard Microformat

Geo Microformat